Regional Weather Roundup
Issued by NWS

Home | Current Version | Previous Version | Graphics & Text | Print | Product List | Glossary Off
Versions: 1 2 3 4 5 6 7 8 9 10 11 12 13 14 15 16 17 18 19 20 21 22 23 24 25 26 27 28 29 30 31 32 33 34 35 36 37 38 39 40 41 42 43 44 45 46 47 48 49 50

000
ASUS43 KMKX 290821
RWRWI

WISCONSIN REGIONAL WEATHER ROUNDUP
NATIONAL WEATHER SERVICE MILWAUKEE/SULLIVAN WI
300 AM CDT FRI JUL 29 2016

NOTE: "FAIR" INDICATES FEW OR NO CLOUDS BELOW 12,000 FEET WITH NO
SIGNIFICANT WEATHER AND/OR OBSTRUCTIONS TO VISIBILITY.

WIZ001-002-006>008-014>016-023>028-290900-
NORTHWEST WISCONSIN

CITY           SKY/WX    TMP DP  RH WIND       PRES   REMARKS
SUPERIOR ARPT  FOG       48  48 100 CALM      30.11S VSB 1/4
ASHLAND        CLEAR     49  48  97 W3        30.10F
HAYWARD        CLEAR     50  48  93 CALM      30.09S
SIREN          CLEAR     50  48  93 CALM      30.10R
CUMBERLAND     CLEAR     55  52  88 N5        30.08S
RICE LAKE      CLEAR     56  53  89 CALM      30.09S
CHETEK         CLEAR     60  55  84 NE3       30.07S
LADYSMITH      CLEAR     57  55  92 CALM      30.09R
EAU CLAIRE     CLOUDY    64  59  83 NE6       30.03F
MENOMONIE      CLOUDY    64  59  85 CALM      30.05S
NEW RICHMOND   CLOUDY    60  58  94 N3        30.07S
OSCEOLA        CLEAR     58  58 100 CALM      30.11R
$$

WIZ003>005-009-010-017-018-290900-
NORTH CENTRAL WISCONSIN

CITY           SKY/WX    TMP DP  RH WIND       PRES   REMARKS
MANITOWISH WTR CLEAR     47  47 100 CALM      30.10S
ARBOR VITAE    CLEAR     52  50  94 CALM      30.09F
WOODRUFF       CLEAR     52  50  94 CALM      30.09F
RHINELANDER    CLEAR     52  50  93 CALM      30.09F
EAGLE RIVER    PTCLDY    46  46 100 CALM      30.09S FOG
LAND O LAKES   CLEAR     45  45  99 CALM      30.11S
PHILLIPS       CLEAR     51  51 100 CALM      30.08S
TOMAHAWK       CLEAR     48  46  95 CALM      30.08S FOG
MEDFORD        CLOUDY    58  55  87 NE5       30.07R
MERRILL        CLOUDY    57  53  85 NE5       30.08R
$$

WIZ029-030-035-036-043>047-290900-
CENTRAL WISCONSIN

CITY           SKY/WX    TMP DP  RH WIND       PRES   REMARKS
WAUSAU         CLOUDY    62  54  74 NE3       30.04S
MOSINEE        CLOUDY    61  54  77 NE5       30.06S
MARSHFIELD     CLOUDY    63  59  87 NE7       30.04F
STEVENS POINT  CLOUDY    58  55  89 NE5       30.04F
WAUPACA        CLOUDY    64  54  69 NE7       30.03S
WAUTOMA        HVY RAIN  59  57  94 N9        30.02  FOG
WISC RAPIDS    CLOUDY    63  54  72 NE8       30.04F
CAMP DOUGLAS   CLOUDY    65  61  86 NE7       30.00F
$$

WIZ011>013-019>022-031-037>040-048>050-290900-
NORTHEAST WISCONSIN

CITY           SKY/WX    TMP DP  RH WIND       PRES   REMARKS
ANTIGO         CLOUDY    56  52  85 NE7       30.06F
SHAWANO        CLOUDY    62  54  74 NE12      30.04F
OCONTO         CLOUDY    60  60 100 N6        30.03S
STURGEON BAY   CLOUDY    64  57  78 NE6       30.03S
GREEN BAY      CLOUDY    60  58  92 NE8       30.03S
MANITOWOC      LGT RAIN  63  60  90 MISG      30.00F
APPLETON       CLOUDY    61  52  72 N12       30.00S
CLINTONVILLE   CLOUDY    61  52  72 NE7       30.03S
OSHKOSH        LGT RAIN  64  59  83 NE12      29.99F
$$

WIZ032>034-041-042-053>061-290900-
SOUTHWEST WISCONSIN

CITY           SKY/WX    TMP DP  RH WIND       PRES   REMARKS
LA CROSSE      CLOUDY    66  62  87 N6        30.00S
SPARTA         CLOUDY    63  61  94 CALM      30.02S
VIROQUA        CLOUDY    63  62  96 NE6       30.01R
BOSCOBEL       CLOUDY    68  62  81 NE5       29.97S
PRAIRIE DU CHI CLOUDY    67  64  88 CALM      29.96S
PLATTEVILLE    CLOUDY    67  66  95 NE8       29.96S
$$

WIZ056-057-062-063-064-067-068-290900-
SOUTH CENTRAL WISCONSIN

CITY           SKY/WX    TMP DP  RH WIND       PRES   REMARKS
REEDSBURG      RAIN      64  63  97 CALM      29.99S
BARABOO/DELLS  CLOUDY    64  60  90 NE5       29.99F
LONE ROCK      CLOUDY    67  61  81 E6        29.98S
MINERAL POINT  CLOUDY    68  63  83 NE8       29.97S
MADISON        CLOUDY    65  62  90 NE7       29.97S
MIDDLETON      CLOUDY    66  62  89 NE6       29.98F
WATERTOWN      CLOUDY    65  65 100 NE5       29.96S
MONROE         CLOUDY    64  61  88 NE9       29.96S
JANESVILLE     CLOUDY    68  63  83 NE6       29.95S
$$

WIZ051-052-058>065-066-070>072-290900-
SOUTHEAST WISCONSIN

CITY           SKY/WX    TMP DP  RH WIND       PRES   REMARKS
MILWAUKEE      CLOUDY    68  64  87 N15       29.95F
WAUKESHA       CLOUDY    64  61  88 NE7       29.98S
MILWAUKEE/TIMM CLOUDY    64  61  88 NE10G17   29.97F
RACINE         CLOUDY    68  65  90 N10       29.95F
BURLINGTON     CLOUDY    67  65  91 N7        29.95F
KENOSHA        CLOUDY    69  67  93 N6        29.94S
FOND DU LAC    RAIN      64  61  90 NE8       30.00S
SHEBOYGAN      CLOUDY    63  61  93 NE9       29.98F
WEST BEND      RAIN      63  61  94 NE7       29.98S
JUNEAU         CLOUDY    64  62  94 NE10      29.99S
$$

LSZ147-162-290900-
LAKE SUPERIOR

STATION/POSITION TIME  TEMP    WIND        PRES    WAVE
                       AIR SEA DIR/SP/G            HT/PER
                 (UTC) (F)     (DEG/KT/KT) (MB)    (FT/S)
W MID LAKE BUOY  0750   60 60  360/  4/  4 1018.8R   1
DEVILS ISLAND    0800   62      10/  8/  9 1019.5R
SAXON HARBOR     0700   52     200/  4/  6 1019.0
$$

LMZ867-665-643>646-290900-
LAKE MICHIGAN

STATION/POSITION TIME  TEMP    WIND        PRES    WAVE
                       AIR SEA DIR/SP/G            HT/PER
                 (UTC) (F)     (DEG/KT/KT) (MB)    (FT/S)
CHAMBERS ISLAND  0700   66     350/ 13/ 17 1016.9R
N MID LAKE BUOY  0750   66 69   30/ 16/ 17 1015.8R   3/ 5
NORTHPORT PIER   0700   66      10/  8/ 12 1016.9R
SISTER BAY       0736   66      30/  1/  4   N/A
ALGOMA LAKESHORE 0743          350/  6/  8   N/A
KEWAUNEE LAKESHO 0700   64      30/  5/ 13 1015.8S
SHEBOYGAN LAKESH 0800   61     360/ 17/ 17 1015.7F
PORT WASHINGTON  0700   67      30/  7/ 12 1015.9S
ATWATER BUOY     0800   63 62  360/ 12/ 14 1015.9F
MILWAUKEE LAKESH 0710   66      10/ 16/ 20   N/A
S MID LAKE BUOY  0750   74 75   80/  8/ 10 1012.8F   2/ 6
KENOSHA   LAKESH 0800   68     360/ 10/ 11 1013.2F
$$

TC  - TEMPERATURE IN CELSIUS
VSB - VISIBILITY IN STATUTE MILES
WCI - WIND CHILL INDEX
HX  - HEAT INDEX





USA.gov is the U.S. government's official web portal to all federal, state and local government web resources and services.